Voltar ao catálogo

SL-12 DEB

AtivoHEO
NORAD 43541·DEBRIS·🇷🇺 Russia

Lançado Oct 26, 2007 de Baikonur Cosmodrome

Loading…

Próximas Passagens (próximas 24 horas)

TLE

AtualizadoSource: Space-Track

Época: Sep 13, 2026, 23:03 UTC

1 43541U 07052AH  26256.96065664  .00000338  00000-0  53649-3 0  9998
2 43541  64.8647 242.7028 5743374 206.4989 106.6952  4.26380293127433

Acompanhe SL-12 DEB em tempo real com AllMySat

Download on the App Store